DW4063 Weather Reports


Display with metric or nautical units.
time (UTC)temp
F
wind
direction
speed
MPH
gust
MPH
rain 1hr
in
rain 24hr
in
rain mn
in
humidity
%
barometer
mb
20260510163021 61 279 0.0 9.0 0.00 0.00 0.00 36 1020.0
20260510161520 61 301 5.0 11.0 0.00 0.00 0.00 32 1019.9
20260510160018 60 352 1.0 7.0 0.00 0.00 0.00 33 1019.6
20260510154517 60 217 0.0 4.0 0.00 0.00 0.00 36 1019.6
20260510153016 58 346 2.0 5.0 0.00 0.00 0.00 36 1019.6
20260510151523 58 205 2.0 6.0 0.00 0.00 0.00 36 1019.7
20260510150025 57 16 0.0 4.0 0.00 0.00 0.00 38 1019.6
20260510144538 56 291 0.0 3.0 0.00 0.00 0.00 39 1019.7
20260510143019 56 161 1.0 4.0 0.00 0.00 0.00 39 1019.6
20260510141518 55 314 2.0 4.0 0.00 0.00 0.00 37 1019.5
20260510140028 55 122 1.0 5.0 0.00 0.00 0.00 40 1019.4
20260510134527 54 107 1.0 4.0 0.00 0.00 0.00 42 1019.3
20260510133025 53 86 2.0 7.0 0.00 0.00 0.00 42 1019.1
20260510131524 53 85 2.0 7.0 0.00 0.00 0.00 43 1018.9
20260510130005 51 123 0.0 3.0 0.00 0.00 0.00 58 1018.8
20260510124520 48 72 0.0 2.0 0.00 0.00 0.00 73 1018.7
20260510123018 45 61 0.0 2.0 0.00 0.00 0.00 83 1018.4
20260510121510 42 49 0.0 3.0 0.00 0.00 0.00 91 1018.2
20260510120032 39 14 0.0 2.0 0.00 0.00 0.00 92 1018.1
20260510114508 37 15 0.0 1.0 0.00 0.00 0.00 91 1018.0
20260510113009 36 15 0.0 0.0 0.00 0.00 0.00 90 1017.6
20260510111520 36 15 0.0 0.0 0.00 0.00 0.00 89 1017.4
20260510110025 36 15 0.0 1.0 0.00 0.00 0.00 88 1017.3
20260510104516 37 15 0.0 2.0 0.00 0.00 0.00 87 1017.1
20260510103012 37 24 0.0 0.0 0.00 0.00 0.00 86 1016.9
20260510101511 37 24 0.0 0.0 0.00 0.00 0.00 85 1016.8
20260510100025 38 24 0.0 1.0 0.00 0.00 0.00 84 1016.5
20260510094522 39 24 0.0 0.0 0.00 0.00 0.00 82 1016.4
20260510093024 39 24 0.0 1.0 0.00 0.00 0.00 81 1016.1
20260510091516 41 24 0.0 0.0 0.00 0.00 0.00 79 1016.3
20260510084512 43 24 0.0 0.0 0.00 0.00 0.00 74 1016.1
20260510083035 44 24 0.0 0.0 0.00 0.00 0.00 70 1015.9
20260510080022 44 23 0.0 2.0 0.00 0.00 0.00 72 1015.4
20260510074521 42 22 0.0 2.0 0.00 0.00 0.00 79 1015.1
20260510073017 41 11 0.0 3.0 0.00 0.00 0.00 87 1015.0
20260510071512 41 15 0.0 2.0 0.00 0.00 0.00 89 1014.6
20260510070029 41 15 0.0 0.0 0.00 0.00 0.00 88 1014.3
20260510064527 41 15 0.0 1.0 0.00 0.00 0.00 87 1014.1
20260510063025 42 15 0.0 2.0 0.00 0.00 0.00 87 1013.7
20260510061523 42 18 0.0 0.0 0.00 0.00 0.00 86 1013.5
20260510060016 43 18 0.0 2.0 0.00 0.00 0.00 85 1013.5
20260510054522 43 18 0.0 0.0 0.00 0.00 0.00 83 1013.4
20260510053026 44 18 0.0 0.0 0.00 0.00 0.00 83 1013.3
20260510051537 44 18 0.0 1.0 0.00 0.00 0.00 81 1013.1
20260510050026 45 18 0.0 0.0 0.00 0.00 0.00 79 1012.8
20260510044524 46 18 0.0 0.0 0.00 0.00 0.00 78 1012.6
20260510043024 46 18 0.0 0.0 0.00 0.00 0.00 76 1012.2
20260510040017 48 18 0.0 0.0 0.00 0.00 0.00 71 1011.7
20260510034513 49 18 0.0 0.0 0.00 0.00 0.00 71 1011.6
20260510033009 50 18 0.0 0.0 0.00 0.00 0.00 68 1011.5
20260510031504 52 18 0.0 2.0 0.00 0.00 0.00 65 1011.4
20260510030024 53 47 0.0 0.0 0.00 0.00 0.00 61 1011.3
20260510024521 55 47 0.0 0.0 0.00 0.00 0.00 54 1011.0
20260510023014 56 47 0.0 2.0 0.00 0.00 0.00 49 1010.8
20260510021511 57 90 1.0 4.0 0.00 0.00 0.00 47 1010.3
20260510020008 59 84 1.0 4.0 0.00 0.00 0.00 44 1009.7
20260510014509 62 66 1.0 4.0 0.00 0.00 0.00 39 1009.4
20260510013023 64 171 0.0 5.0 0.00 0.00 0.00 39 1008.9
20260510011532 65 329 0.0 6.0 0.00 0.00 0.00 37 1008.6
20260510010019 65 302 1.0 10.0 0.00 0.00 0.00 37 1008.2
20260510004516 67 304 0.0 4.0 0.00 0.00 0.00 38 1007.9
20260510003027 68 329 2.0 8.0 0.00 0.00 0.00 34 1007.5
20260510001527 69 325 3.0 12.0 0.00 0.00 0.00 32 1007.2
20260510000027 69 314 5.0 13.0 0.00 0.00 0.00 31 1006.9
20260509234525 70 360 3.0 12.0 0.00 0.00 0.00 33 1006.7
20260509233022 71 329 3.0 12.0 0.00 0.00 0.00 30 1006.5
20260509231527 71 191 5.0 13.0 0.00 0.00 0.00 31 1006.4
20260509230027 72 334 2.0 11.0 0.00 0.00 0.00 30 1006.1
20260509224526 73 320 3.0 12.0 0.00 0.00 0.00 28 1005.9
20260509223025 73 319 5.0 13.0 0.00 0.00 0.00 27 1005.8
20260509221534 73 333 5.0 12.0 0.00 0.00 0.00 29 1005.6
20260509220023 73 344 5.0 15.0 0.00 0.00 0.00 29 1005.5
20260509214519 73 352 3.0 15.0 0.00 0.00 0.00 30 1005.2
20260509213017 74 295 4.0 15.0 0.00 0.00 0.00 29 1005.1
20260509211513 74 308 4.0 20.0 0.00 0.00 0.00 29 1004.8
20260509210008 74 246 4.0 18.0 0.00 0.00 0.00 30 1004.8
20260509203023 74 331 7.0 16.0 0.00 0.00 0.00 30 1004.8
20260509200019 73 360 4.0 14.0 0.00 0.00 0.00 31 1005.0
20260509194516 72 329 4.0 17.0 0.00 0.00 0.00 30 1005.1
20260509193014 72 338 7.0 12.0 0.00 0.00 0.00 31 1005.0
20260509191508 71 221 6.0 17.0 0.00 0.00 0.00 30 1005.1
20260509190040 72 346 3.0 11.0 0.00 0.00 0.00 30 1005.0
20260509184529 73 228 3.0 12.0 0.00 0.00 0.00 27 1004.9
20260509183026 72 225 4.0 10.0 0.00 0.00 0.00 31 1004.8
20260509180016 72 294 3.0 12.0 0.00 0.00 0.00 33 1004.9
20260509174527 73 290 4.0 12.0 0.00 0.00 0.00 33 1005.0
20260509173024 73 346 4.0 9.0 0.00 0.00 0.00 33 1005.0
20260509171525 72 328 3.0 12.0 0.00 0.00 0.00 34 1005.0
20260509170029 71 307 3.0 8.0 0.00 0.00 0.00 48 1005.0
20260509164520 70 281 2.0 6.0 0.00 0.00 0.00 49 1005.1